28. Mai 2022

Uhrzeit Code Wetter Temp. Sichtweite Wolkendecke Wind METAR/SPECI
5:30 pm
V
84 °F 6¼ mi+ - 310° 310° 13 kt METAR LFMP 281530Z AUTO 31013KT 280V340 CAVOK 29/12 Q1010 TEMPO 32020G30KT
5:00 pm
V
84 °F 6¼ mi+ - 310° 310° 14 kt METAR LFMP 281500Z AUTO 31014KT 290V350 CAVOK 29/12 Q1010 TEMPO 32020G30KT
4:30 pm
V
84 °F 6¼ mi+ - 330° 330° 14 kt METAR LFMP 281430Z AUTO 33014KT CAVOK 29/12 Q1010 TEMPO 31020G30KT
4:00 pm
V
84 °F 6¼ mi+ - 330° 330° 16 kt METAR LFMP 281400Z AUTO 33016KT CAVOK 29/12 Q1011 TEMPO 31020G30KT
3:30 pm
V
86 °F 6¼ mi+ - 320° 320° 14 kt METAR LFMP 281330Z AUTO 32014KT 280V360 CAVOK 30/12 Q1011 TEMPO 31020G30KT
3:00 pm
V
84 °F 6¼ mi+ - 330° 330° 17 kt METAR LFMP 281300Z AUTO 33017KT 290V010 CAVOK 29/13 Q1011 TEMPO 31020G30KT
2:30 pm
V
84 °F 6¼ mi+ - 340° 340° 17 kt METAR LFMP 281230Z AUTO 34017KT CAVOK 29/13 Q1012 TEMPO 31020G30KT
2:00 pm
V
86 °F 6¼ mi+ - 340° 340° 13 kt METAR LFMP 281200Z AUTO 34013KT 300V010 CAVOK 30/13 Q1012 TEMPO 31020G30KT
1:30 pm
V
84 °F 6¼ mi+ - 320° 320° 14 kt METAR LFMP 281130Z AUTO 32014KT 290V350 CAVOK 29/12 Q1012 TEMPO 31020G30KT
1:00 pm
V
84 °F 6¼ mi+ - 300° 300° 15 kt METAR LFMP 281100Z AUTO 30015KT 280V340 CAVOK 29/11 Q1013 TEMPO 31020G30KT
12:30 pm
V
82 °F 6¼ mi+ - 310° 310° 15 kt METAR LFMP 281030Z AUTO 31015KT 290V350 CAVOK 28/10 Q1013 TEMPO 31020G30KT
12:00 pm
V
82 °F 6¼ mi+ - 300° 300° 21 kt METAR LFMP 281000Z AUTO 30021KT 270V330 CAVOK 28/10 Q1013 TEMPO 31020G30KT
11:30 am
V
82 °F 6¼ mi+ - 310° 310° 11 kt METAR LFMP 280930Z AUTO 31011KT 280V360 CAVOK 28/09 Q1013 TEMPO 31020G30KT
11:00 am
V
81 °F 6¼ mi+ - 310° 310° 15 kt METAR LFMP 280900Z AUTO 31015KT CAVOK 27/10 Q1013 TEMPO 31020G30KT
10:30 am
V
79 °F 6¼ mi+ - 310° 310° 20 - 31 kt METAR LFMP 280830Z AUTO 31020G31KT CAVOK 26/10 Q1013 NOSIG
10:00 am
V
77 °F 6¼ mi+ - 300° 300° 18 - 28 kt METAR LFMP 280800Z AUTO 30018G28KT CAVOK 25/11 Q1013 NOSIG
9:30 am
V
75 °F 6¼ mi+ - 300° 300° 19 - 31 kt METAR LFMP 280730Z AUTO 30019G31KT CAVOK 24/11 Q1013 NOSIG
9:00 am
V
73 °F 6¼ mi+ - 300° 300° 21 kt METAR LFMP 280700Z AUTO 30021KT CAVOK 23/12 Q1013 BECMG 30017G27KT
8:30 am
V
73 °F 6¼ mi+ - 300° 300° 17 - 28 kt METAR LFMP 280630Z AUTO 30017G28KT CAVOK 23/12 Q1014 NOSIG
8:00 am
V
72 °F 6¼ mi+ - 290° 290° 15 kt METAR LFMP 280600Z AUTO 29015KT CAVOK 22/12 Q1014 BECMG 30017G27KT
7:30 am
V
70 °F 6¼ mi+ - 300° 300° 13 kt METAR LFMP 280530Z AUTO 30013KT CAVOK 21/12 Q1014 BECMG 30017G27KT
7:00 am
V
70 °F 6¼ mi+ - 300° 300° 15 kt METAR LFMP 280500Z AUTO 30015KT 270V330 CAVOK 21/12 Q1014 BECMG 30017G27KT
6:30 am
V
70 °F 6¼ mi+ - 300° 300° 11 kt METAR LFMP 280430Z AUTO 30011KT 270V330 CAVOK 21/12 Q1014 BECMG 30017G27KT
6:00 am
V
70 °F 6¼ mi+ - 300° 300° 12 kt METAR LFMP 280400Z AUTO 30012KT CAVOK 21/12 Q1014 BECMG 30017G27KT
5:30 am
V
70 °F 6¼ mi+ - 300° 300° 14 kt METAR LFMP 280330Z AUTO 30014KT CAVOK 21/11 Q1014 BECMG 30017G27KT
5:00 am
V
70 °F 6¼ mi+ - 300° 300° 15 kt METAR LFMP 280300Z AUTO 30015KT CAVOK 21/12 Q1015 BECMG 30017G27KT
4:30 am
V
72 °F 6¼ mi+ - 300° 300° 18 kt METAR LFMP 280230Z AUTO 30018KT CAVOK 22/12 Q1015
4:00 am
V
72 °F 6¼ mi+ - 300° 300° 17 kt METAR LFMP 280200Z AUTO 30017KT CAVOK 22/12 Q1016
3:30 am
V
72 °F 6¼ mi+ - 300° 300° 18 kt METAR LFMP 280130Z AUTO 30018KT CAVOK 22/12 Q1016
3:00 am
V
72 °F 6¼ mi+ - 300° 300° 16 kt METAR LFMP 280100Z AUTO 30016KT CAVOK 22/12 Q1016
2:30 am
V
72 °F 6¼ mi+ - 300° 300° 17 kt METAR LFMP 280030Z AUTO 30017KT CAVOK 22/12 Q1017
2:00 am
V
73 °F 6¼ mi+ - 300° 300° 17 kt METAR LFMP 280000Z AUTO 30017KT CAVOK 23/12 Q1017
1:30 am
V
73 °F 6¼ mi+ - 300° 300° 19 - 30 kt METAR LFMP 272330Z AUTO 30019G30KT CAVOK 23/12 Q1017
1:00 am
V
73 °F 6¼ mi+ - 300° 300° 18 kt METAR LFMP 272300Z AUTO 30018KT CAVOK 23/12 Q1018
12:30 am
V
73 °F 6¼ mi+ - 300° 300° 20 kt METAR LFMP 272230Z AUTO 30020KT CAVOK 23/12 Q1018
12:00 am
V
73 °F 6¼ mi+ - 300° 300° 21 kt METAR LFMP 272200Z AUTO 30021KT CAVOK 23/12 Q1018

27. Mai 2022

Uhrzeit Code Wetter Temp. Sichtweite Wolkendecke Wind METAR/SPECI
11:30 pm
V
73 °F 6¼ mi+ - 300° 300° 22 kt METAR LFMP 272130Z AUTO 30022KT CAVOK 23/12 Q1018 BECMG 31020G35KT
11:00 pm
V
73 °F 6¼ mi+ - 300° 300° 21 kt METAR LFMP 272100Z AUTO 30021KT CAVOK 23/12 Q1018 BECMG 31020G35KT
10:30 pm
V
73 °F 6¼ mi+ - 300° 300° 20 - 31 kt METAR LFMP 272030Z AUTO 30020G31KT CAVOK 23/11 Q1018 NOSIG
10:00 pm
V
75 °F 6¼ mi+ - 300° 300° 17 - 28 kt METAR LFMP 272000Z AUTO 30017G28KT CAVOK 24/11 Q1018 NOSIG
9:30 pm
V
75 °F 6¼ mi+ - 300° 300° 18 - 29 kt METAR LFMP 271930Z AUTO 30018G29KT CAVOK 24/11 Q1018 NOSIG
9:00 pm
V
75 °F 6¼ mi+ - 310° 310° 17 - 29 kt METAR LFMP 271900Z AUTO 31017G29KT CAVOK 24/11 Q1018 NOSIG
8:30 pm
V
77 °F 6¼ mi+ - 310° 310° 16 - 26 kt METAR LFMP 271830Z AUTO 31016G26KT 280V350 CAVOK 25/12 Q1017 NOSIG
8:00 pm
V
77 °F 6¼ mi+ - 300° 300° 19 - 29 kt METAR LFMP 271800Z AUTO 30019G29KT CAVOK 25/12 Q1017 NOSIG
7:30 pm
V
79 °F 6¼ mi+ - 310° 310° 17 - 29 kt METAR LFMP 271730Z AUTO 31017G29KT CAVOK 26/11 Q1017 NOSIG
7:00 pm
V
79 °F 6¼ mi+ - 320° 320° 16 kt METAR LFMP 271700Z AUTO 32016KT CAVOK 26/11 Q1017 BECMG 31020G35KT
6:30 pm
V
81 °F 6¼ mi+ - 310° 310° 17 kt METAR LFMP 271630Z AUTO 31017KT 280V340 CAVOK 27/11 Q1017 BECMG 31020G35KT
6:00 pm
V
81 °F 6¼ mi+ - 320° 320° 16 kt METAR LFMP 271600Z AUTO 32016KT 290V350 CAVOK 27/11 Q1018 BECMG 31020G35KT
5:30 pm
V
81 °F 6¼ mi+ - 320° 320° 16 kt METAR LFMP 271530Z AUTO 32016KT CAVOK 27/11 Q1018 BECMG 31020G35KT
5:00 pm
V
82 °F 6¼ mi+ - 320° 320° 16 kt METAR LFMP 271500Z AUTO 32016KT CAVOK 28/11 Q1018 BECMG 31020G35KT
4:30 pm
V
82 °F 6¼ mi+ - 310° 310° 16 kt METAR LFMP 271430Z AUTO 31016KT CAVOK 28/11 Q1019 BECMG 31020G35KT
4:00 pm
V
82 °F 6¼ mi+ - 310° 310° 16 kt METAR LFMP 271400Z AUTO 31016KT CAVOK 28/10 Q1019 BECMG 32020G35KT
3:30 pm
V
81 °F 6¼ mi+ - 330° 330° 16 kt METAR LFMP 271330Z AUTO 33016KT CAVOK 27/10 Q1019 BECMG 32020G35KT
3:00 pm
V
81 °F 6¼ mi+ - 320° 320° 16 kt METAR LFMP 271300Z AUTO 32016KT CAVOK 27/11 Q1019 BECMG 32020G35KT
2:30 pm
V
81 °F 6¼ mi+ - 310° 310° 14 kt METAR LFMP 271230Z AUTO 31014KT 280V340 CAVOK 27/11 Q1020 BECMG 32020G35KT
2:00 pm
V
79 °F 6¼ mi+ - 300° 300° 20 kt METAR LFMP 271200Z AUTO 30020KT CAVOK 26/10 Q1020 BECMG 32020G35KT
1:30 pm
V
79 °F 6¼ mi+ - 300° 300° 20 kt METAR LFMP 271130Z AUTO 30020KT CAVOK 26/11 Q1020 BECMG 32020G35KT
1:00 pm
V
77 °F 6¼ mi+ - 300° 300° 18 kt METAR LFMP 271100Z AUTO 30018KT 280V340 CAVOK 25/11 Q1020 BECMG 32020G35KT
12:30 pm
V
75 °F 6¼ mi+ - 310° 310° 15 kt METAR LFMP 271030Z AUTO 31015KT CAVOK 24/11 Q1021 BECMG 32020G35KT
12:00 pm
V
73 °F 6¼ mi+ - 300° 300° 19 kt METAR LFMP 271000Z AUTO 30019KT CAVOK 23/10 Q1021 BECMG 32020G35KT
11:30 am
V
72 °F 6¼ mi+ - 300° 300° 19 kt METAR LFMP 270930Z AUTO 30019KT CAVOK 22/10 Q1021 BECMG 32020G35KT
11:00 am
V
72 °F 6¼ mi+ - 300° 300° 17 kt METAR LFMP 270900Z AUTO 30017KT CAVOK 22/10 Q1021 BECMG 32020G35KT
10:30 am
V
70 °F 6¼ mi+ - 300° 300° 16 kt METAR LFMP 270830Z AUTO 30016KT CAVOK 21/10 Q1022 BECMG 32020G35KT
10:00 am
V
70 °F 6¼ mi+ - 310° 310° 15 kt METAR LFMP 270800Z AUTO 31015KT 270V340 CAVOK 21/10 Q1022 BECMG 32020G35KT
9:30 am
V
68 °F 6¼ mi+ - 320° 320° 14 kt METAR LFMP 270730Z AUTO 32014KT CAVOK 20/10 Q1021 BECMG 32020G35KT
9:00 am
V
66 °F 6¼ mi+ - 320° 320° 14 kt METAR LFMP 270700Z AUTO 32014KT 290V350 CAVOK 19/10 Q1021 BECMG 32020G35KT
8:30 am
V
66 °F 6¼ mi+ - 320° 320° 15 kt METAR LFMP 270630Z AUTO 32015KT CAVOK 19/10 Q1021 BECMG 32020G35KT
8:00 am
V
64 °F 6¼ mi+ - 320° 320° 13 kt METAR LFMP 270600Z AUTO 32013KT CAVOK 18/10 Q1021 BECMG 32020G35KT
7:30 am
V
64 °F 6¼ mi+ - 320° 320° 15 kt METAR LFMP 270530Z AUTO 32015KT 290V350 CAVOK 18/10 Q1021 BECMG 32020G35KT
7:00 am
V
64 °F 6¼ mi+ - 320° 320° 16 kt METAR LFMP 270500Z AUTO 32016KT 280V360 CAVOK 18/10 Q1021 BECMG 32020G35KT
6:30 am
V
64 °F 6¼ mi+ - 310° 310° 16 kt METAR LFMP 270430Z AUTO 31016KT CAVOK 18/10 Q1021 BECMG 32020G35KT
6:00 am
V
64 °F 6¼ mi+ - 310° 310° 15 - 28 kt METAR LFMP 270400Z AUTO 31015G28KT CAVOK 18/10 Q1021 NOSIG
5:30 am
V
64 °F 6¼ mi+ - 310° 310° 13 kt METAR LFMP 270330Z AUTO 31013KT 280V340 CAVOK 18/10 Q1021 BECMG 32020G35KT
5:00 am
V
64 °F 6¼ mi+ - 320° 320° 14 - 24 kt METAR LFMP 270300Z AUTO 32014G24KT 280V340 CAVOK 18/10 Q1021 BECMG 32020G35KT
4:30 am
V
64 °F 6¼ mi+ - 320° 320° 16 kt METAR LFMP 270230Z AUTO 32016KT 290V350 CAVOK 18/11 Q1021
4:00 am
V
64 °F 6¼ mi+ - 320° 320° 14 - 24 kt METAR LFMP 270200Z AUTO 32014G24KT CAVOK 18/11 Q1021
3:30 am
V
64 °F 6¼ mi+ - 320° 320° 14 kt METAR LFMP 270130Z AUTO 32014KT CAVOK 18/11 Q1022
3:00 am
V
64 °F 6¼ mi+ - 310° 310° 15 kt METAR LFMP 270100Z AUTO 31015KT 280V340 CAVOK 18/11 Q1022
2:30 am
V
64 °F 6¼ mi+ - 310° 310° 16 - 26 kt METAR LFMP 270030Z AUTO 31016G26KT 290V350 9999 FEW098 18/11 Q1022
2:00 am
V
66 °F 6¼ mi+ - 310° 310° 15 - 25 kt METAR LFMP 270000Z AUTO 31015G25KT 9999 SCT094 19/11 Q1022
1:30 am
V
66 °F 6¼ mi+ - 310° 310° 15 kt METAR LFMP 262330Z AUTO 31015KT 280V340 CAVOK 19/11 Q1022
1:00 am
V
66 °F 6¼ mi+ - 310° 310° 14 kt METAR LFMP 262300Z AUTO 31014KT 280V340 CAVOK 19/11 Q1023
12:30 am
V
66 °F 6¼ mi+ - 310° 310° 14 kt METAR LFMP 262230Z AUTO 31014KT 290V350 CAVOK 19/11 Q1023
12:00 am
V
66 °F 6¼ mi+ - 310° 310° 16 - 28 kt METAR LFMP 262200Z AUTO 31016G28KT 290V350 CAVOK 19/11 Q1022

26. Mai 2022

Uhrzeit Code Wetter Temp. Sichtweite Wolkendecke Wind METAR/SPECI
11:30 pm
V
66 °F 6¼ mi+ - 310° 310° 17 kt METAR LFMP 262130Z AUTO 31017KT 9999 FEW096 SCT130 19/11 Q1022 TEMPO 30022G36KT
11:00 pm
V
68 °F 6¼ mi+ - 310° 310° 18 kt METAR LFMP 262100Z AUTO 31018KT 9999 FEW094 20/11 Q1022 TEMPO 30022G36KT
10:30 pm
V
68 °F 6¼ mi+ 13.000 ft 310° 310° 22 - 33 kt METAR LFMP 262030Z AUTO 31022G33KT 9999 SCT092 BKN130 20/11 Q1022 NOSIG
10:00 pm
V
68 °F 6¼ mi+ 13.000 ft 310° 310° 21 - 34 kt METAR LFMP 262000Z AUTO 31021G34KT 9999 SCT092 OVC130 20/11 Q1022 NOSIG
9:30 pm
V
68 °F 6¼ mi+ 13.000 ft 300° 300° 19 kt METAR LFMP 261930Z AUTO 30019KT 9999 FEW096 BKN130 20/10 Q1022 TEMPO 30022G36KT
9:00 pm
V
68 °F 6¼ mi+ 12.000 ft 300° 300° 21 kt METAR LFMP 261900Z AUTO 30021KT 9999 FEW100 BKN120 20/10 Q1022 TEMPO 30022G36KT
8:30 pm
V
70 °F 6¼ mi+ - 300° 300° 23 kt METAR LFMP 261830Z AUTO 30023KT 280V340 CAVOK 21/10 Q1021 TEMPO 30022G36KT
8:00 pm
V
72 °F 6¼ mi+ - 300° 300° 23 - 36 kt METAR LFMP 261800Z AUTO 30023G36KT 9999 FEW096 SCT130 22/10 Q1021 NOSIG
7:30 pm
V
70 °F 6¼ mi+ - 300° 300° 25 kt METAR LFMP 261730Z AUTO 30025KT 9999 FEW100 SCT130 21/10 Q1021 TEMPO 30022G36KT
7:00 pm
V
72 °F 6¼ mi+ - 300° 300° 24 - 39 kt METAR LFMP 261700Z AUTO 30024G39KT 9999 FEW100 22/10 Q1021 NOSIG
6:30 pm
V
73 °F 6¼ mi+ - 310° 310° 22 - 35 kt METAR LFMP 261630Z AUTO 31022G35KT CAVOK 23/10 Q1021 NOSIG
6:00 pm
V
73 °F 6¼ mi+ - 300° 300° 27 - 38 kt METAR LFMP 261600Z AUTO 30027G38KT CAVOK 23/10 Q1021 NOSIG
5:30 pm
V
75 °F 6¼ mi+ - 300° 300° 22 kt METAR LFMP 261530Z AUTO 30022KT CAVOK 24/10 Q1021 TEMPO 30022G36KT
5:00 pm
V
75 °F 6¼ mi+ - 310° 310° 20 - 32 kt METAR LFMP 261500Z AUTO 31020G32KT CAVOK 24/10 Q1021 NOSIG
Ältere Daten

Laden Sie unsere App herunter

Einfacher Zugriff auf das gesamte Flugwetter auf Ihrem Mobiltelefon und Tablet.
Mit vielen Funktionen, die auf der Website nicht verfügbar sind, wie Offline-Unterstützung und eine persönliche Flughafenliste.

Wir und Dritte verfolgen dein Internetverhalten auf unserer Website mit Cookies. Wenn du fortfährst, gehen wir davon aus, dass du mit unserer Cookie-Richtlinie einverstanden bist. Mehr erfahren